NASA958 KJAC-KMYF

Flight info

Callsign NASA958
Flight time 1h 48m
Altitude 43000
Route JEDHY KICNE MLF TNP JLI
Aircraft E55P/M-SBDFGHJ2RWY/LB2

Departure

Time 2026-05-06 15:18
Airport Jackson Hole Airport (KJAC)

Arrival

Time 2026-05-06 17:06
Airport Montgomery-Gibbs Executive Airport (KMYF)
Time Latitude Longitude Altitude Speed Heading
2026-05-06 15:09 43.59811 -110.73955 6408 ft 0 kts 19°
2026-05-06 15:12 43.59813 -110.73954 6408 ft 1 kts 19°
2026-05-06 15:12 43.59837 -110.73965 6408 ft 7 kts 332°
2026-05-06 15:12 43.59892 -110.74010 6409 ft 9 kts 339°
2026-05-06 15:13 43.59931 -110.74007 6409 ft 7 kts 17°
2026-05-06 15:13 43.60004 -110.73972 6411 ft 10 kts 19°
2026-05-06 15:13 43.60088 -110.73932 6413 ft 14 kts 18°
2026-05-06 15:13 43.60192 -110.73882 6414 ft 17 kts 19°
2026-05-06 15:14 43.60309 -110.73824 6417 ft 18 kts 20°
2026-05-06 15:14 43.60435 -110.73762 6420 ft 19 kts 20°
2026-05-06 15:14 43.60574 -110.73695 6422 ft 21 kts 19°
2026-05-06 15:14 43.60708 -110.73629 6425 ft 19 kts 19°
2026-05-06 15:15 43.60786 -110.73592 6427 ft 17 kts 20°
2026-05-06 15:15 43.60933 -110.73520 6428 ft 15 kts 19°
2026-05-06 15:15 43.61024 -110.73475 6431 ft 12 kts 19°
2026-05-06 15:15 43.61097 -110.73438 6433 ft 10 kts 19°
2026-05-06 15:16 43.61162 -110.73408 6433 ft 9 kts 19°
2026-05-06 15:16 43.61234 -110.73373 6434 ft 11 kts 20°
2026-05-06 15:16 43.61285 -110.73347 6435 ft 11 kts 20°
2026-05-06 15:16 43.61391 -110.73296 6438 ft 12 kts 19°
2026-05-06 15:17 43.61472 -110.73259 6440 ft 10 kts
2026-05-06 15:17 43.61505 -110.73295 6440 ft 9 kts 299°
2026-05-06 15:17 43.61514 -110.73397 6439 ft 8 kts 192°
2026-05-06 15:17 43.61414 -110.73446 6436 ft 39 kts 198°
2026-05-06 15:18 43.60878 -110.73705 6427 ft 121 kts 199°
2026-05-06 15:18 43.59953 -110.74190 6774 ft 153 kts 202°
2026-05-06 15:18 43.58892 -110.74826 7334 ft 182 kts 205°
2026-05-06 15:18 43.57599 -110.75717 7611 ft 230 kts 206°
2026-05-06 15:19 43.56132 -110.76688 8690 ft 238 kts 205°
2026-05-06 15:19 43.54693 -110.77626 9948 ft 234 kts 205°
2026-05-06 15:19 43.53236 -110.78568 10955 ft 240 kts 206°
2026-05-06 15:19 43.51691 -110.79569 11784 ft 253 kts 207°
2026-05-06 15:20 43.50061 -110.80627 12635 ft 264 kts 208°
2026-05-06 15:20 43.48400 -110.81702 13505 ft 273 kts 208°
2026-05-06 15:20 43.46658 -110.82829 14358 ft 281 kts 209°
2026-05-06 15:20 43.44870 -110.83993 15199 ft 288 kts 209°
2026-05-06 15:21 43.43059 -110.85165 15961 ft 297 kts 208°
2026-05-06 15:21 43.41165 -110.86387 16746 ft 304 kts 209°
2026-05-06 15:21 43.39227 -110.87641 17491 ft 312 kts 209°
2026-05-06 15:21 43.37272 -110.88897 18259 ft 318 kts 209°
2026-05-06 15:22 43.35261 -110.90193 19038 ft 322 kts 210°
2026-05-06 15:22 43.33223 -110.91506 19814 ft 327 kts 209°
2026-05-06 15:22 43.31141 -110.92849 20526 ft 333 kts 210°
2026-05-06 15:22 43.29062 -110.94182 21269 ft 336 kts 210°
2026-05-06 15:23 43.27638 -110.95097 21738 ft 339 kts 209°
2026-05-06 15:23 43.24765 -110.96941 22666 ft 345 kts 209°
2026-05-06 15:23 43.23330 -110.97867 23126 ft 347 kts 210°
2026-05-06 15:23 43.20307 -110.99536 24002 ft 356 kts 200°
2026-05-06 15:24 43.17935 -111.00577 24664 ft 360 kts 201°
2026-05-06 15:24 43.15577 -111.01636 25331 ft 363 kts 201°
2026-05-06 15:24 43.13138 -111.02731 25943 ft 369 kts 201°
2026-05-06 15:24 43.10685 -111.03827 26566 ft 373 kts 201°
2026-05-06 15:25 43.08207 -111.04939 27203 ft 377 kts 201°
2026-05-06 15:25 43.05703 -111.06071 27786 ft 382 kts 201°
2026-05-06 15:25 43.03169 -111.07199 28387 ft 386 kts 201°
2026-05-06 15:25 43.00606 -111.08343 29033 ft 388 kts 201°
2026-05-06 15:26 42.98047 -111.09498 29581 ft 393 kts 201°
2026-05-06 15:26 42.95426 -111.10665 30144 ft 396 kts 201°
2026-05-06 15:26 42.93672 -111.11446 30502 ft 399 kts 201°
2026-05-06 15:26 42.91039 -111.12612 31117 ft 400 kts 201°
2026-05-06 15:27 42.87552 -111.14181 31914 ft 399 kts 201°
2026-05-06 15:27 42.84901 -111.15359 32512 ft 398 kts 201°
2026-05-06 15:27 42.82267 -111.16531 33049 ft 399 kts 200°
2026-05-06 15:27 42.79661 -111.17687 33566 ft 399 kts 200°
2026-05-06 15:28 42.76996 -111.18872 34072 ft 400 kts 201°
2026-05-06 15:28 42.74377 -111.20034 34618 ft 400 kts 201°
2026-05-06 15:28 42.71714 -111.21219 35209 ft 398 kts 201°
2026-05-06 15:28 42.69118 -111.22368 35749 ft 398 kts 201°
2026-05-06 15:29 42.66484 -111.23526 36315 ft 396 kts 201°
2026-05-06 15:29 42.63860 -111.24687 36838 ft 396 kts 202°
2026-05-06 15:29 42.61239 -111.25841 37336 ft 395 kts 201°
2026-05-06 15:29 42.58656 -111.26987 37811 ft 395 kts 201°
2026-05-06 15:30 42.56026 -111.28140 38264 ft 396 kts 202°
2026-05-06 15:30 42.53419 -111.29293 38753 ft 394 kts 201°
2026-05-06 15:30 42.50820 -111.30440 39202 ft 394 kts 202°
2026-05-06 15:30 42.48203 -111.31587 39630 ft 394 kts 201°
2026-05-06 15:31 42.45609 -111.32730 40002 ft 394 kts 201°
2026-05-06 15:31 42.43039 -111.33858 40420 ft 390 kts 202°
2026-05-06 15:31 42.40442 -111.34995 40849 ft 386 kts 201°
2026-05-06 15:32 42.35425 -111.37196 41657 ft 376 kts 201°
2026-05-06 15:32 42.32941 -111.38283 41982 ft 374 kts 201°
2026-05-06 15:32 42.30485 -111.39352 42299 ft 371 kts 201°
2026-05-06 15:32 42.28069 -111.40408 42603 ft 368 kts 201°
2026-05-06 15:33 42.25618 -111.41476 42915 ft 364 kts 201°
2026-05-06 15:33 42.24035 -111.42172 43065 ft 365 kts 201°
2026-05-06 15:33 42.18259 -111.44690 43113 ft 383 kts 201°
2026-05-06 15:34 42.13097 -111.46931 43107 ft 401 kts 200°
2026-05-06 15:34 42.07653 -111.49294 43100 ft 419 kts 200°
2026-05-06 15:35 42.02985 -111.51314 43097 ft 434 kts 200°
2026-05-06 15:35 41.99107 -111.52994 43093 ft 445 kts 200°
2026-05-06 15:35 41.96139 -111.54279 43095 ft 449 kts 200°
2026-05-06 15:36 41.90184 -111.56848 43102 ft 452 kts 200°
2026-05-06 15:36 41.84185 -111.59432 43110 ft 454 kts 200°
2026-05-06 15:37 41.78173 -111.62014 43119 ft 455 kts 200°
2026-05-06 15:37 41.72129 -111.64612 43106 ft 457 kts 200°
2026-05-06 15:38 41.66073 -111.67205 43129 ft 458 kts 199°
2026-05-06 15:38 41.59995 -111.69797 43117 ft 460 kts 199°
2026-05-06 15:39 41.53853 -111.72417 43137 ft 462 kts 199°
2026-05-06 15:39 41.47745 -111.75017 43131 ft 463 kts 200°
2026-05-06 15:40 41.42626 -111.77195 43141 ft 464 kts 199°
2026-05-06 15:40 41.36485 -111.79798 43139 ft 465 kts 199°
2026-05-06 15:41 41.29258 -111.82857 43150 ft 466 kts 199°
2026-05-06 15:41 41.23082 -111.85468 43130 ft 466 kts 199°
2026-05-06 15:42 41.16908 -111.88068 43130 ft 466 kts 199°
2026-05-06 15:42 41.10722 -111.90664 43122 ft 465 kts 199°
2026-05-06 15:43 41.04587 -111.93242 43113 ft 466 kts 199°
2026-05-06 15:43 40.98394 -111.95837 43120 ft 466 kts 199°
2026-05-06 15:44 40.92212 -111.98421 43123 ft 466 kts 199°
2026-05-06 15:44 40.86034 -112.01005 43114 ft 467 kts 199°
2026-05-06 15:45 40.79847 -112.03578 43119 ft 467 kts 199°
2026-05-06 15:45 40.73644 -112.06154 43126 ft 467 kts 199°
2026-05-06 15:46 40.67465 -112.08717 43113 ft 467 kts 199°
2026-05-06 15:46 40.61251 -112.11289 43143 ft 467 kts 199°
2026-05-06 15:47 40.55047 -112.13856 43137 ft 468 kts 199°
2026-05-06 15:47 40.48839 -112.16415 43134 ft 469 kts 199°
2026-05-06 15:48 40.42586 -112.18992 43124 ft 471 kts 199°
2026-05-06 15:48 40.36318 -112.21564 43106 ft 474 kts 199°
2026-05-06 15:49 40.30025 -112.24147 43125 ft 475 kts 199°
2026-05-06 15:49 40.23720 -112.26723 43136 ft 477 kts 199°
2026-05-06 15:50 40.17359 -112.29324 43139 ft 479 kts 199°
2026-05-06 15:50 40.11002 -112.31915 43123 ft 481 kts 199°
2026-05-06 15:51 40.04579 -112.34530 43112 ft 483 kts 199°
2026-05-06 15:51 39.98165 -112.37135 43111 ft 485 kts 199°
2026-05-06 15:52 39.91716 -112.39741 43114 ft 486 kts 199°
2026-05-06 15:52 39.85246 -112.42365 43112 ft 487 kts 199°
2026-05-06 15:53 39.78755 -112.44984 43113 ft 488 kts 199°
2026-05-06 15:53 39.72292 -112.47585 43126 ft 488 kts 199°
2026-05-06 15:54 39.65795 -112.50198 43133 ft 489 kts 199°
2026-05-06 15:54 39.59328 -112.52794 43127 ft 490 kts 199°
2026-05-06 15:55 39.52784 -112.55412 43129 ft 490 kts 199°
2026-05-06 15:55 39.46295 -112.58009 43133 ft 491 kts 199°
2026-05-06 15:56 39.39781 -112.60607 43117 ft 490 kts 199°
2026-05-06 15:56 39.33250 -112.63206 43131 ft 490 kts 199°
2026-05-06 15:57 39.26730 -112.65797 43138 ft 490 kts 199°
2026-05-06 15:57 39.20198 -112.68386 43152 ft 491 kts 199°
2026-05-06 15:58 39.13646 -112.70978 43145 ft 493 kts 199°
2026-05-06 15:58 39.07064 -112.73583 43154 ft 494 kts 199°
2026-05-06 15:59 39.00468 -112.76179 43147 ft 495 kts 199°
2026-05-06 15:59 38.93911 -112.78762 43138 ft 496 kts 199°
2026-05-06 16:00 38.87302 -112.81357 43121 ft 498 kts 199°
2026-05-06 16:00 38.80655 -112.83961 43121 ft 498 kts 199°
2026-05-06 16:01 38.74047 -112.86547 43122 ft 498 kts 199°
2026-05-06 16:01 38.67409 -112.89139 43124 ft 497 kts 199°
2026-05-06 16:02 38.60788 -112.91718 43142 ft 497 kts 198°
2026-05-06 16:02 38.54173 -112.94292 43134 ft 497 kts 198°
2026-05-06 16:03 38.47569 -112.96854 43135 ft 493 kts 199°
2026-05-06 16:03 38.41032 -112.99387 43090 ft 487 kts 198°
2026-05-06 16:04 38.35722 -113.01542 43076 ft 478 kts 206°
2026-05-06 16:04 38.29002 -113.06168 43131 ft 465 kts 211°
2026-05-06 16:05 38.23336 -113.10076 43147 ft 459 kts 211°
2026-05-06 16:05 38.17775 -113.13899 43154 ft 455 kts 211°
2026-05-06 16:06 38.12255 -113.17690 43153 ft 450 kts 211°
2026-05-06 16:06 38.06775 -113.21444 43159 ft 446 kts 211°
2026-05-06 16:07 38.01326 -113.25173 43152 ft 444 kts 211°
2026-05-06 16:07 37.95871 -113.28900 43170 ft 448 kts 211°
2026-05-06 16:08 37.90371 -113.32649 43162 ft 452 kts 211°
2026-05-06 16:08 37.84833 -113.36420 43155 ft 455 kts 211°
2026-05-06 16:09 37.79239 -113.40221 43158 ft 458 kts 211°
2026-05-06 16:09 37.73624 -113.44029 43153 ft 460 kts 211°
2026-05-06 16:10 37.67980 -113.47849 43161 ft 462 kts 211°
2026-05-06 16:10 37.62312 -113.51684 43157 ft 464 kts 211°
2026-05-06 16:11 37.56605 -113.55534 43158 ft 466 kts 211°
2026-05-06 16:11 37.51826 -113.58752 43153 ft 467 kts 211°
2026-05-06 16:12 37.45130 -113.63256 43149 ft 469 kts 211°
2026-05-06 16:12 37.40350 -113.66464 43149 ft 470 kts 210°
2026-05-06 16:13 37.33598 -113.70988 43159 ft 471 kts 210°
2026-05-06 16:13 37.27829 -113.74849 43134 ft 470 kts 210°
2026-05-06 16:14 37.22091 -113.78677 43130 ft 464 kts 210°
2026-05-06 16:14 37.16388 -113.82482 43132 ft 459 kts 210°
2026-05-06 16:15 37.10794 -113.86204 43098 ft 454 kts 210°
2026-05-06 16:15 37.05234 -113.89899 43100 ft 449 kts 210°
2026-05-06 16:16 36.99723 -113.93551 43088 ft 445 kts 209°
2026-05-06 16:16 36.94261 -113.97167 43086 ft 441 kts 210°
2026-05-06 16:17 36.88886 -114.00719 43075 ft 438 kts 210°
2026-05-06 16:17 36.83519 -114.04263 43067 ft 434 kts 210°
2026-05-06 16:18 36.79084 -114.07183 43075 ft 431 kts 210°
2026-05-06 16:18 36.72906 -114.11249 43069 ft 428 kts 210°
2026-05-06 16:19 36.67659 -114.14696 43072 ft 424 kts 210°
2026-05-06 16:19 36.62465 -114.18104 43074 ft 422 kts 210°
2026-05-06 16:20 36.58126 -114.20946 43073 ft 420 kts 210°
2026-05-06 16:20 36.52130 -114.24864 43066 ft 417 kts 210°
2026-05-06 16:21 36.46995 -114.28218 43073 ft 415 kts 210°
2026-05-06 16:21 36.41909 -114.31535 43070 ft 414 kts 210°
2026-05-06 16:22 36.36826 -114.34843 43073 ft 417 kts 210°
2026-05-06 16:22 36.31662 -114.38198 43069 ft 420 kts 210°
2026-05-06 16:23 36.26431 -114.41595 43072 ft 423 kts 210°
2026-05-06 16:23 36.21230 -114.44964 43065 ft 426 kts 210°
2026-05-06 16:24 36.15924 -114.48397 43060 ft 429 kts 210°
2026-05-06 16:24 36.10625 -114.51820 43060 ft 431 kts 210°
2026-05-06 16:25 36.05281 -114.55268 43051 ft 434 kts 210°
2026-05-06 16:25 35.99941 -114.58707 43037 ft 437 kts 209°
2026-05-06 16:26 35.94518 -114.62192 43042 ft 438 kts 210°
2026-05-06 16:26 35.89183 -114.65732 43046 ft 438 kts 212°
2026-05-06 16:27 35.83973 -114.69535 43048 ft 439 kts 212°
2026-05-06 16:27 35.78682 -114.73403 43050 ft 440 kts 212°
2026-05-06 16:28 35.73450 -114.77228 43047 ft 441 kts 212°
2026-05-06 16:28 35.69033 -114.80452 43044 ft 441 kts 212°
2026-05-06 16:29 35.62880 -114.84937 43058 ft 442 kts 212°
2026-05-06 16:29 35.57571 -114.88796 43057 ft 442 kts 212°
2026-05-06 16:30 35.54072 -114.91341 43066 ft 442 kts 212°
2026-05-06 16:30 35.46999 -114.96471 43072 ft 443 kts 212°
2026-05-06 16:31 35.41689 -115.00317 43077 ft 443 kts 212°
2026-05-06 16:31 35.36386 -115.04151 43082 ft 443 kts 212°
2026-05-06 16:32 35.31059 -115.07997 43080 ft 444 kts 212°
2026-05-06 16:32 35.25743 -115.11828 43087 ft 444 kts 212°
2026-05-06 16:33 35.20449 -115.15638 43087 ft 444 kts 212°
2026-05-06 16:34 35.12452 -115.21382 43091 ft 445 kts 212°
2026-05-06 16:34 35.07099 -115.25221 43083 ft 445 kts 212°
2026-05-06 16:35 35.01757 -115.29045 43083 ft 445 kts 212°
2026-05-06 16:35 34.96448 -115.32838 43069 ft 445 kts 212°
2026-05-06 16:36 34.91080 -115.36671 43069 ft 445 kts 212°
2026-05-06 16:36 34.85785 -115.40443 43070 ft 445 kts 212°
2026-05-06 16:37 34.80444 -115.44244 43075 ft 444 kts 212°
2026-05-06 16:37 34.77752 -115.46157 42633 ft 455 kts 212°
2026-05-06 16:37 34.74990 -115.48121 42152 ft 466 kts 212°
2026-05-06 16:37 34.72236 -115.50075 41658 ft 462 kts 212°
2026-05-06 16:38 34.69476 -115.52031 41137 ft 458 kts 212°
2026-05-06 16:38 34.66734 -115.53973 40649 ft 454 kts 212°
2026-05-06 16:38 34.64033 -115.55885 40151 ft 451 kts 211°
2026-05-06 16:38 34.61342 -115.57789 39631 ft 448 kts 211°
2026-05-06 16:39 34.58649 -115.59691 39145 ft 445 kts 211°
2026-05-06 16:39 34.55999 -115.61565 38665 ft 442 kts 211°
2026-05-06 16:39 34.53321 -115.63455 38155 ft 440 kts 211°
2026-05-06 16:39 34.50705 -115.65299 37658 ft 438 kts 210°
2026-05-06 16:40 34.48115 -115.67124 37169 ft 435 kts 210°
2026-05-06 16:40 34.45520 -115.68953 36691 ft 433 kts 210°
2026-05-06 16:40 34.42905 -115.70792 36213 ft 431 kts 209°
2026-05-06 16:40 34.40331 -115.72604 35776 ft 429 kts 210°
2026-05-06 16:41 34.37724 -115.74435 35368 ft 429 kts 209°
2026-05-06 16:41 34.35183 -115.76219 34951 ft 429 kts 209°
2026-05-06 16:41 34.32585 -115.78044 34515 ft 430 kts 209°
2026-05-06 16:41 34.29980 -115.79866 34066 ft 431 kts 208°
2026-05-06 16:42 34.27395 -115.81683 33579 ft 432 kts 208°
2026-05-06 16:42 34.24788 -115.83505 33093 ft 433 kts 208°
2026-05-06 16:42 34.22169 -115.85330 32599 ft 433 kts 208°
2026-05-06 16:42 34.19554 -115.87170 32111 ft 433 kts 208°
2026-05-06 16:43 34.16931 -115.88992 31633 ft 432 kts 208°
2026-05-06 16:43 34.14327 -115.90811 31152 ft 431 kts 208°
2026-05-06 16:43 34.11752 -115.92607 30676 ft 430 kts 208°
2026-05-06 16:43 34.09147 -115.94428 30201 ft 429 kts 208°
2026-05-06 16:44 34.06564 -115.96226 29718 ft 428 kts 208°
2026-05-06 16:44 34.03985 -115.98022 29240 ft 426 kts 208°
2026-05-06 16:44 34.01437 -115.99790 28774 ft 423 kts 208°
2026-05-06 16:44 33.98863 -116.01577 28306 ft 421 kts 208°
2026-05-06 16:45 33.96350 -116.03322 27844 ft 418 kts 208°
2026-05-06 16:45 33.93825 -116.05080 27376 ft 416 kts 208°
2026-05-06 16:45 33.91339 -116.06803 26919 ft 413 kts 208°
2026-05-06 16:45 33.88852 -116.08529 26451 ft 411 kts 208°
2026-05-06 16:46 33.86366 -116.10253 25983 ft 407 kts 208°
2026-05-06 16:46 33.83939 -116.11930 25528 ft 404 kts 208°
2026-05-06 16:46 33.81486 -116.13621 25068 ft 401 kts 209°
2026-05-06 16:46 33.79067 -116.15298 24529 ft 400 kts 209°
2026-05-06 16:47 33.76680 -116.16950 24063 ft 396 kts 209°
2026-05-06 16:47 33.74300 -116.18592 23601 ft 393 kts 209°
2026-05-06 16:47 33.71935 -116.20225 23147 ft 390 kts 209°
2026-05-06 16:47 33.69572 -116.21851 22701 ft 386 kts 209°
2026-05-06 16:48 33.67281 -116.23434 22276 ft 383 kts 209°
2026-05-06 16:48 33.64964 -116.25031 21850 ft 379 kts 209°
2026-05-06 16:48 33.62678 -116.26604 21429 ft 375 kts 209°
2026-05-06 16:48 33.60440 -116.28144 21023 ft 372 kts 209°
2026-05-06 16:49 33.58176 -116.29703 20609 ft 369 kts 209°
2026-05-06 16:49 33.55959 -116.31222 20210 ft 365 kts 209°
2026-05-06 16:49 33.53771 -116.32726 19814 ft 362 kts 209°
2026-05-06 16:49 33.51596 -116.34217 19439 ft 360 kts 209°
2026-05-06 16:50 33.49403 -116.35720 19051 ft 357 kts 208°
2026-05-06 16:50 33.47269 -116.37188 18665 ft 352 kts 209°
2026-05-06 16:50 33.45143 -116.38639 18279 ft 348 kts 209°
2026-05-06 16:50 33.43766 -116.39581 18024 ft 345 kts 209°
2026-05-06 16:51 33.40975 -116.41496 17514 ft 340 kts 209°
2026-05-06 16:51 33.38938 -116.42888 17150 ft 336 kts 209°
2026-05-06 16:51 33.36922 -116.44263 16792 ft 332 kts 209°
2026-05-06 16:51 33.34914 -116.45637 16425 ft 329 kts 209°
2026-05-06 16:52 33.34255 -116.46087 16305 ft 328 kts 209°
2026-05-06 16:52 33.29639 -116.49232 15464 ft 321 kts 210°
2026-05-06 16:52 33.27695 -116.50562 15112 ft 318 kts 209°
2026-05-06 16:53 33.25792 -116.51858 14767 ft 315 kts 209°
2026-05-06 16:53 33.23873 -116.53167 14418 ft 313 kts 209°
2026-05-06 16:53 33.21996 -116.54443 14074 ft 311 kts 210°
2026-05-06 16:53 33.20118 -116.55720 13728 ft 308 kts 210°
2026-05-06 16:54 33.18251 -116.56994 13379 ft 306 kts 210°
2026-05-06 16:54 33.16415 -116.58239 13033 ft 304 kts 210°
2026-05-06 16:54 33.14577 -116.59492 12694 ft 303 kts 210°
2026-05-06 16:54 33.12735 -116.60739 12355 ft 301 kts 210°
2026-05-06 16:55 33.10934 -116.61964 12021 ft 299 kts 210°
2026-05-06 16:55 33.09127 -116.63190 11689 ft 297 kts 210°
2026-05-06 16:55 33.07335 -116.64406 11352 ft 296 kts 210°
2026-05-06 16:55 33.05533 -116.65629 11027 ft 294 kts 209°
2026-05-06 16:56 33.03766 -116.66830 10699 ft 292 kts 208°
2026-05-06 16:56 33.02012 -116.68016 10374 ft 290 kts 208°
2026-05-06 16:56 33.00264 -116.69199 10054 ft 288 kts 208°
2026-05-06 16:56 32.98509 -116.70388 9727 ft 287 kts 208°
2026-05-06 16:57 32.96785 -116.71549 9406 ft 285 kts 208°
2026-05-06 16:57 32.95054 -116.72721 9094 ft 284 kts 208°
2026-05-06 16:57 32.93339 -116.73878 8784 ft 281 kts 208°
2026-05-06 16:57 32.91653 -116.75018 8483 ft 279 kts 208°
2026-05-06 16:58 32.89961 -116.76161 8158 ft 273 kts 209°
2026-05-06 16:58 32.88331 -116.77261 7845 ft 266 kts 209°
2026-05-06 16:58 32.86732 -116.78338 7541 ft 259 kts 209°
2026-05-06 16:58 32.85192 -116.79376 7260 ft 253 kts 209°
2026-05-06 16:59 32.83666 -116.80405 6973 ft 247 kts 209°
2026-05-06 16:59 32.82194 -116.81397 6699 ft 242 kts 209°
2026-05-06 16:59 32.80733 -116.82381 6432 ft 238 kts 209°
2026-05-06 16:59 32.79291 -116.83350 6172 ft 233 kts 210°
2026-05-06 17:00 32.77891 -116.84294 5930 ft 229 kts 210°
2026-05-06 17:00 32.76599 -116.85352 5576 ft 230 kts 210°
2026-05-06 17:00 32.75164 -116.86247 4970 ft 242 kts 210°
2026-05-06 17:00 32.73665 -116.87288 4331 ft 250 kts 213°
2026-05-06 17:01 32.72589 -116.88783 4191 ft 231 kts 253°
2026-05-06 17:01 32.72546 -116.90566 4041 ft 213 kts 290°
2026-05-06 17:01 32.73081 -116.92178 3857 ft 205 kts 295°
2026-05-06 17:01 32.73636 -116.93688 3666 ft 198 kts 296°
2026-05-06 17:02 32.74198 -116.95141 3544 ft 187 kts 297°
2026-05-06 17:02 32.74720 -116.96470 3344 ft 167 kts 297°
2026-05-06 17:02 32.75196 -116.97678 3265 ft 162 kts 297°
2026-05-06 17:02 32.75675 -116.98888 3074 ft 162 kts 297°
2026-05-06 17:03 32.76153 -117.00095 2858 ft 161 kts 297°
2026-05-06 17:03 32.76621 -117.01283 2638 ft 153 kts 297°
2026-05-06 17:03 32.77056 -117.02414 2431 ft 148 kts 294°
2026-05-06 17:03 32.77471 -117.03507 2232 ft 143 kts 297°
2026-05-06 17:04 32.77887 -117.04559 2036 ft 138 kts 296°
2026-05-06 17:04 32.78289 -117.05574 1851 ft 134 kts 296°
2026-05-06 17:04 32.78681 -117.06564 1673 ft 131 kts 297°
2026-05-06 17:04 32.79066 -117.07533 1503 ft 128 kts 297°
2026-05-06 17:05 32.79456 -117.08514 1339 ft 133 kts 297°
2026-05-06 17:05 32.79842 -117.09489 1162 ft 129 kts 297°
2026-05-06 17:05 32.80219 -117.10441 987 ft 124 kts 296°
2026-05-06 17:05 32.80577 -117.11345 825 ft 118 kts 296°
2026-05-06 17:06 32.80925 -117.12221 655 ft 114 kts 296°
2026-05-06 17:06 32.81263 -117.13063 493 ft 111 kts 295°
2026-05-06 17:06 32.81579 -117.13869 421 ft 100 kts 295°
2026-05-06 17:06 32.81763 -117.14337 417 ft 17 kts 296°
2026-05-06 17:07 32.81797 -117.14460 414 ft 14 kts 243°
2026-05-06 17:07 32.81710 -117.14520 413 ft 14 kts 208°
2026-05-06 17:07 32.81622 -117.14552 414 ft 11 kts 127°
2026-05-06 17:07 32.81589 -117.14468 414 ft 11 kts 115°
2026-05-06 17:08 32.81553 -117.14378 414 ft 13 kts 115°
2026-05-06 17:08 32.81512 -117.14275 415 ft 13 kts 115°
2026-05-06 17:08 32.81472 -117.14173 416 ft 13 kts 118°
2026-05-06 17:08 32.81402 -117.14118 416 ft 10 kts 140°
2026-05-06 17:09 32.81337 -117.14135 414 ft 6 kts 208°
2026-05-06 17:09 32.81309 -117.14121 414 ft 4 kts 107°
2026-05-06 17:09 32.81309 -117.14118 415 ft 0 kts 108°